METAR Formatted Surface Weather Observation
Issued by NWS

Home | Current Version | Previous Version | Text Only | Print | Product List | Glossary On
Versions: 1 2 3 4 5 6 7 8 9 10 11 12 13 14 15 16 17 18 19 20 21 22 23 24 25 26 27 28 29 30
000
SAUS41 KBOX 230455
MTRMQE
METAR KMQE 230454Z AUTO 21010KT 06/02 A2985 RMK AO1 SLP122 T00560017
401280011



USA.gov is the U.S. government's official web portal to all federal, state and local government web resources and services.